User: anonymous   Login
Location: Bittkow
(50.3000°N, 19.0000°E)
Time: 03:04:24
(UTC+00:00)
Language:

USA 267 - Orbit

View from above orbital plane
View from above orbital plane
View from above satellite
View from above satellite

Ground track
Ground track

The orbit data is extracted from the following two-line orbital elements,

1 41334U 16010A   20334.70713746 0.00000000  00000-0  00000-0 0    03
2 41334 122.9965  40.3262 0004551  15.8795 344.2078 13.41425747    04
Epoch (UTC): 29 November 2020 16:58:16
Eccentricity: 0.0004551
inclination: 122.9965°
perigee height: 1100 km
apogee height: 1107 km
right ascension of ascending node: 40.3262°
argument of perigee: 15.8795°
revolutions per day: 13.41425747
mean anomaly at epoch: 344.2078°
orbit number at epoch: 0

The dashed part of the orbit path shows where the satellite is in the earth's shadow,  

DLR